This is the latest recevied weather packets stored in our database for station/object HJ3GNC-11. If no packets are shown the sender has not sent any weather packets the latest 10 day(s).
| Time | Temp. | Humidity | Pressure | Rain* | Wind** | Luminosity | Snow |
|---|---|---|---|---|---|---|---|
| 1777612301 | 12.22° C | 86% | 1018 hPa | 0 mm | - | - | - |
| 1777611357 | 11.11° C | 86% | 1018 hPa | 0 mm | - | - | - |
| 1777610415 | 12.22° C | 81% | 1018 hPa | 0 mm | - | - | - |
| 1777609471 | 11.11° C | 81% | 1018 hPa | 0 mm | - | - | - |
| 1777608527 | 12.22° C | 80% | 1018 hPa | 0 mm | - | - | - |
| 1777607584 | 13.33° C | 80% | 1018 hPa | 0 mm | - | - | - |
| 1777605431 | 12.22° C | 80% | 1018 hPa | 0 mm | - | - | - |
| 1777603464 | 12.78° C | 81% | 1018 hPa | 0 mm | - | - | - |
| 1777602489 | 13.33° C | 77% | 1017 hPa | 0 mm | - | - | - |
| 1777601470 | 13.33° C | 80% | 1017 hPa | 0 mm | - | - | - |
| 1777600471 | 13.89° C | 83% | 1017 hPa | 0 mm | - | - | - |
| 1777599456 | 13.89° C | 82% | 1017 hPa | 0 mm | - | - | - |
| 1777598459 | 13.89° C | 77% | 1016 hPa | 0 mm | - | - | - |
| 1777597515 | 13.89° C | 78% | 1016 hPa | 0 mm | - | - | - |
| 1777596567 | 13.89° C | 81% | 1016 hPa | 0 mm | - | - | - |
| 1777595624 | 13.89° C | 79% | 1015 hPa | 0 mm | - | - | - |
| 1777594680 | 13.89° C | 71% | 1014 hPa | 0 mm | - | - | - |
| 1777593734 | 13.89° C | 72% | 1014 hPa | 0 mm | - | - | - |
| 1777592787 | 14.44° C | 77% | 1014 hPa | 0 mm | - | - | - |
| 1777591831 | 15° C | 76% | 1013 hPa | 0 mm | - | - | - |
| 1777590871 | 15° C | 71% | 1012 hPa | 0 mm | - | - | - |
| 1777589916 | 15° C | 73% | 1012 hPa | 0 mm | - | - | - |
| 1777588958 | 18.33° C | 68% | 1011 hPa | 0 mm | - | - | - |
| 1777587997 | 17.22° C | 68% | 1010 hPa | 0 mm | - | - | - |
| 1777587013 | 16.11° C | 68% | 1010 hPa | 0 mm | - | - | - |
* Rain latest hour (hover to see other rain measurements)
** Current wind speed in m/s (hover to see current wind gust speed)